Regional Weather Roundup
Issued by NWS Charleston, SC

Current Version | Previous Version | Graphics & Text | Print | Product List | Glossary On
Versions: 1 2 3 4 5 6 7 8 9 10 11 12 13 14 15 16 17 18 19 20 21 22 23 24 25 26 27 28 29 30 31 32 33 34 35 36 37 38 39 40 41 42 43 44 45 46 47 48 49 50
000 ASUS42 KCHS 281713 RWRCHS REGIONAL WEATHER ROUNDUP NATIONAL WEATHER SERVICE CHARLESTON SC 100 PM EDT WED SEP 28 2016 NOTE: "FAIR" INDICATES FEW OR NO CLOUDS BELOW 12,000 FEET WITH NO SIGNIFICANT WEATHER AND/OR OBSTRUCTIONS TO VISIBILITY. NOT ALL STATIONS ARE QUALITY CONTROLLED. USE DATA WITH CAUTION... ESPECIALLY DEWPOINT OBSERVATIONS. SCZ027-030-031-034>040-042>050-281800- ...SOUTHEAST SOUTH CAROLINA... CITY SKY/WX TMP DP RH WIND PRES REMARKS N CHARLESTON MOSUNNY 87 71 58 SW8 29.96S HX 93 WATERFRONT PRK N/A 84 75 74 SW7 29.95S HX 92 MOUNT PLEASANT NOT AVBL JOHNS ISLAND FAIR 86 75 70 S13 29.97S HX 95 PINOPOLIS N/A 84 73 70 SW7 29.89F HX 91 MONCKS CORNER FAIR 84 70 61 S6 29.96S SUMMERVILLE NOT AVBL BEAUFORT MCAS CLOUDY 86 71 60 SW6 29.97S HX 91 BEAUFORT ARPT FAIR 84 72 65 S7 29.96S HILTON HEAD IS NOT AVBL WALTERBORO PTSUNNY 88 70 55 SW6 29.97S HX 92 ALLENDALE FAIR 88 70 55 SW8G14 29.94F HX 92 ...SOUTHERN MIDLANDS AND PEE DEE... CITY SKY/WX TMP DP RH WIND PRES REMARKS GEORGETOWN PTSUNNY 84 70 61 SW3 29.97S KINGSTREE FAIR 86 68 54 SW8 29.95S ORANGEBURG SUNNY 87 70 56 W12G20 29.94F HX 92 BARNWELL NOT AVBL AIKEN PTSUNNY 86 68 54 SW12 29.97F MANNING FAIR 82 70 65 S9 29.95S COLUMBIA CLOUDY 89 68 49 SW10 29.92F HX 93 SUMTER MOSUNNY 88 71 56 S9 29.91F HX 94 FLORENCE MOSUNNY 87 70 56 SW7 29.94F HX 92 MYRTLE BEACH MOSUNNY 84 68 58 S15 29.98S N MYRTLE BEACH SUNNY 83 73 72 S10 29.97S $$ GAZ063-065-086>088-099>101-113>116-118-119-134>141-150-281800- ...SOUTHEAST GEORGIA... CITY SKY/WX TMP DP RH WIND PRES REMARKS SAVANNAH ARPT PTSUNNY 88 68 51 SW12 29.96F HX 91 HUNTER AAF PTSUNNY 87 77 72 S8 29.94F HX 99 FORT STEWART MOSUNNY 87 70 56 VRB5 29.94F HX 92 STATESBORO MOSUNNY 90 71 54 S8 29.95F HX 96 SYLVANIA NOT AVBL CLAXTON FAIR 88 70 54 SE8 29.96S HX 93 ...CSRA...CENTRAL AND FAR SOUTHEAST GEORGIA... CITY SKY/WX TMP DP RH WIND PRES REMARKS THOMSON PTSUNNY 89 70 54 W5 29.97F HX 94 AUGUSTA-BUSH SUNNY 89 69 51 SW7 29.92F HX 93 AUGUSTA-DANIEL MOSUNNY 90 65 43 SW8 29.94F HX 92 SWAINSBORO FAIR 86 68 54 SW7 29.96S VIDALIA MOSUNNY 90 72 55 S9 29.96F HX 96 EASTMAN FAIR 89 57 33 SW8 29.97F HAZLEHURST PTSUNNY 89 73 59 N8 29.95F HX 97 ALMA MOSUNNY 86 71 60 SW8 29.97F HX 91 WAYCROSS PTSUNNY 91 74 59 W9 29.97F HX 100 JESUP FAIR 88 73 62 SW6 29.97F HX 96 BAXLEY FAIR 88 75 66 SW6 29.96F HX 97 BRUNSWICK MOSUNNY 90 73 58 SW7 29.98F HX 98 SAINT SIMONS PTSUNNY 85 68 56 SW9 29.98S $$ SCZ027-028-034-036>038-045-046-048>050-GAZ119-141-281800- ...LAKE AND SUPPLEMENTAL COASTAL OBSERVATIONS... STATION/POSITION TIME TEMP WIND PRES WAVE SWELL AIR SEA DIR/SP/G HT/PER HT/PER/DIR (UTC) (F) (DEG/KT/KT) (MB) (FT/S) (FT/S/D) WINYAH BAY 1545 83 170/ 5 1014.0 LAKE MURRAY 1620 84 160/ 2/ 3 1013.2S ACE BASIN NERRS 1545 85 220/ 2 1015.0 FORT PULASKI 1642 83 81 130/ 5/ 8 1015.4S SAPELO ISLAND 1600 86 190/ 2 1015.0 $$ ANZ835-935-AMZ111-154-330-350-352-354-370-450-454-472-281800- ...C-MAN AND BUOY OBSERVATIONS... STATION/POSITION TIME TEMP WIND PRES WAVE SWELL AIR SEA DIR/SP/G HT/PER HT/PER/DIR (UTC) (F) (DEG/KT/KT) (MB) (FT/S) (FT/S/D) BUOY 41004 1650 81 83 200/ 6/ 8 1015.1R 3/11 3/120/11 BUOY 41008 1650 81 83 190/ 8/ 10 1015.2R 2/11 2/ 70/11 FOLLY BEACH CMAN 1600 82 220/ 11/ 12 1015.1F CAPERS NEARSHORE 1608 81 81 230/ 10/ 14 1014.9F FRIPP NEARSHORE 1608 87 81 220/ 10/ 12 1015.1F STATION/POSITION TIME TEMP WIND PRES WAVE SWELL AIR SEA DIR/SP/G HT/PER HT/PER/DIR (UTC) (F) (DEG/KT/KT) (MB) (FT/S) (FT/S/D) 5E ST. MARYS GA 1601 83 N/A 2/13 2/100/13 FRYING PAN BUOY 1650 81 82 160/ 4/ 6 1015.3S 3/ 7 3/110/ 7 BUOY 41025 1650 77 84 50/ 6/ 8 1015.7R 4/ 8 3/ 70/ 8 CAPE LOOKOUT NC 1600 78 110/ 5/ 5 1015.1F BUOY 41002 1650 80 83 210/ 12/ 16 1015.4F 4/11 3/ 70/11 BUOY 41010 NOT AVBL ST AUGUSTINE FL 1700 86 85 280/ 5/ 6 1016.3F $$

USA.gov is the U.S. government's official web portal to all federal, state and local government web resources and services.